Location: Skalnate Pleso
(49.1889°N, 20.2450°E)
Time: 00:18:46
(UTC+01:00)

Cosmos 2082 Rocket - Pass Details

Date: 19 November 2019
Orbit: 833 x 854 km, 71.0° (Epoch: 06 December)

Event Time Altitude Azimuth Distance (km) Brightness Sun altitude
Exits shadow 04:58:23 26° 313° (NW) 1,620 3.2 -18.7°
Maximum altitude 04:58:32 26° 316° (NW) 1,619 3.2 -18.7°
Drops below altitude 10° 05:03:18 10° 13° (NNE) 2,489 4.7 -17.9°
Sets 05:06:11 0° 25° (NNE) 3,425 5.6 -17.4°
